Location: Ciula Mare
(45.6000°N, 22.8167°E)
Time: 21:29:51
(UTC+00:00)

deb Delta 139 - Visible Passes

Search period start: 27 February 2024 00:00
Search period end: 08 March 2024 00:00
Orbit: 680 x 840 km, 98.8° (Epoch: 26 February)

Date Brightness Start Highest point End Pass type
(mag) Time Alt. Az. Time Alt. Az. Time Alt. Az.
27 Feb ? 17:28:12 11° NE 17:28:12 11° NE 17:29:18 10° NE visible
27 Feb ? 19:08:17 31° N 19:08:17 31° N 19:11:01 10° N visible
27 Feb ? 20:48:22 11° NW 20:48:22 11° NW 20:48:44 10° NW visible
28 Feb ? 18:29:25 26° NNE 18:29:25 26° NNE 18:32:18 10° N visible
28 Feb ? 20:09:30 21° NW 20:09:30 21° NW 20:11:21 10° NNW visible
29 Feb ? 17:50:30 16° NE 17:50:30 16° NE 17:52:55 10° NNE visible
29 Feb ? 19:30:35 31° NNW 19:30:35 31° NNW 19:33:15 10° NNW visible
01 Mar ? 18:51:38 32° NNE 18:51:38 32° NNE 18:54:40 10° N visible
01 Mar ? 20:31:42 16° NW 20:31:42 16° NW 20:33:03 10° NW visible
02 Mar ? 18:12:39 22° NE 18:12:39 22° NE 18:15:36 10° N visible
02 Mar ? 19:52:43 28° NW 19:52:43 28° NW 19:55:10 10° NNW visible
03 Mar ? 17:33:37 12° NE 17:33:37 12° NE 17:35:23 10° NE visible
03 Mar ? 19:13:41 36° N 19:13:41 36° N 19:16:44 10° N visible
03 Mar ? 20:53:45 11° NW 20:53:45 11° NW 20:54:10 10° NW visible
04 Mar ? 18:34:37 29° NE 18:34:37 29° NE 18:37:51 10° N visible
04 Mar ? 20:14:41 22° NW 20:14:41 22° NW 20:16:46 10° NNW visible
05 Mar ? 17:55:30 17° NE 17:55:30 17° NE 17:58:20 10° NNE visible
05 Mar ? 19:35:34 36° NNW 19:35:34 36° NNW 19:38:31 10° NNW visible
06 Mar ? 18:56:25 37° NNE 18:56:25 37° NNE 18:59:46 10° N visible
06 Mar ? 20:36:28 16° NW 20:36:28 16° NW 20:37:58 10° NW visible
07 Mar ? 18:17:14 24° NE 18:17:14 24° NE 18:20:32 10° N visible
07 Mar ? 19:57:17 30° NW 19:57:17 30° NW 19:59:59 10° NNW visible
